Wind_Speed
5 6 7 8 8 8 8 7 7 7 7 6 7 7 7 6 6 6 6 5 5 5 4 4 3 3 2 2 1 1 2 2 3 3 3 3 4 4 5 5 6 7 7
5 5 5 6 7 8 8 7 7 6 6 5 5 6 6 6 6 6 5 5 4 4 5 4 3 3 2 2 1 2 2 3 3 4 4 4 4 4 5 5 6 7 8
5 5 4 5 6 6 7 7 7 7 6 5 5 5 5 5 5 5 5 4 4 4 4 3 3 2 1 1 2 3 3 4 4 4 4 5 5 4 4 5 6 7 8
5 5 4 4 4 5 5 6 7 6 6 5 4 4 4 4 5 4 4 4 4 4 3 3 3 2 2 2 2 3 3 3 4 4 4 5 5 5 5 6 7 8 9
5 6 5 4 4 4 4 5 5 6 6 5 4 3 3 4 4 4 4 4 4 4 4 3 3 3 3 3 3 4 4 4 4 5 5 5 6 6 6 6 8 8 9
6 6 6 5 5 4 4 4 5 4 5 4 3 3 3 3 3 3 3 3 4 4 4 4 4 3 3 3 4 5 5 5 5 6 6 6 7 7 8 8 9 9 10
8 7 8 7 7 6 5 4 4 4 3 3 3 3 3 2 3 3 3 3 4 4 4 4 4 4 4 5 5 6 6 6 6 6 6 7 8 8 9 10 10 11 11
8 8 9 8 8 7 6 5 5 4 4 3 3 3 3 3 3 3 4 4 4 4 4 4 4 4 5 6 6 7 6 6 7 7 7 8 9 10 10 11 11 12 12
9 9 9 9 8 8 7 6 6 5 4 4 4 4 5 5 5 4 4 4 4 5 5 5 5 5 6 6 7 7 7 7 7 8 9 9 10 11 12 12 13 13 13
11 10 10 10 9 8 8 8 7 7 6 5 5 6 6 6 6 6 5 5 6 5 5 5 6 6 6 7 8 8 8 8 9 10 10 11 12 12 13 14 14 15 14
12 11 11 11 10 10 9 9 9 8 8 7 7 7 7 6 6 6 6 7 7 6 6 7 7 7 8 8 9 9 9 10 10 11 12 13 13 14 15 15 15 15 15
14 13 13 12 12 12 11 11 11 9 8 8 8 8 8 7 7 7 8 7 7 7 8 8 8 9 9 10 10 10 11 12 12 13 14 14 15 15 15 15 15 15 15
16 15 14 14 13 13 12 12 11 11 10 9 9 9 8 8 8 8 8 8 8 8 8 9 9 9 10 10 11 12 13 13 14 15 16 16 16 16 16 16 16 16 16
17 16 16 16 15 15 14 14 13 12 12 11 11 11 10 10 10 10 10 10 10 10 9 10 10 11 12 12 13 13 14 15 16 17 17 18 18 18 18 18 18 17 17
19 18 18 17 17 16 16 15 14 13 13 13 13 12 12 11 11 11 11 11 11 11 11 11 12 14 14 15 15 15 16 17 18 18 19 19 19 20 19 19 19 18 18
20 19 19 19 18 18 18 17 16 16 15 14 14 14 14 13 13 12 12 13 13 13 13 13 14 15 16 16 17 17 17 18 19 20 20 20 20 20 20 20 20 20 19
21 21 20 20 19 19 20 19 19 18 17 16 16 16 15 15 15 14 14 14 15 14 15 15 16 16 17 18 19 19 20 20 20 20 21 20 20 20 20 20 20 21 21
22 22 22 21 21 21 21 22 21 20 19 18 17 17 17 18 17 16 15 16 16 16 17 17 18 18 19 20 21 21 22 22 21 21 21 21 21 21 21 21 21 21 21
24 23 24 24 23 23 23 23 22 21 21 20 19 19 19 20 19 18 18 17 18 18 19 19 20 20 20 21 22 22 22 22 22 22 23 22 22 22 22 22 21 21 21
25 25 25 25 25 24 25 24 24 23 23 22 22 21 21 21 21 21 21 20 20 20 20 21 21 21 21 22 22 22 22 22 23 23 24 24 24 24 23 23 22 22 21
27 27 27 27 27 27 27 26 26 25 26 25 24 23 23 23 23 23 24 23 22 22 22 22 23 23 23 23 23 23 23 23 24 24 25 25 25 25 24 23 23 23 22
29 29 29 29 28 28 29 28 28 27 26 26 25 25 25 25 26 26 25 24 24 24 24 24 24 24 24 23 23 23 24 25 25 25 25 26 25 23 24 24 24 23 23
31 31 31 31 31 30 29 29 29 28 28 27 26 27 27 27 27 26 26 25 26 26 25 25 25 25 24 24 24 24 25 25 25 25 25 25 25 24 24 24 25 25 25
32 32 32 32 32 31 30 30 30 30 29 28 28 27 27 27 27 27 27 27 27 27 27 27 27 27 26 26 26 26 26 26 27 26 26 25 25 25 25 25 25 26 27
34 34 33 33 33 31 32 32 31 31 30 30 30 30 30 29 28 27 27 28 29 29 29 29 28 28 28 27 27 27 28 28 28 27 27 27 27 26 26 26 26 27 28
33 33 33 33 33 32 32 32 32 32 32 32 31 31 30 30 29 29 29 29 29 29 29 29 29 29 29 28 28 28 28 28 28 28 28 28 28 28 28 28 28 28 28
Wind_Direction
27 31 38 41 40 40 41 43 47 53 58 66 70 72 72 67 67 69 71 75 82 86 92 99 95 95 89 76 55 33 2 356 342 327 316 302 292 282 276 273 275 278 280
13 19 28 30 31 32 33 33 34 40 47 55 63 68 70 66 63 62 64 67 70 78 81 83 77 76 64 49 14 348 349 344 338 333 317 310 302 290 285 280 281 280 281
359 2 13 16 21 23 25 27 27 28 32 40 50 56 63 62 62 60 60 58 57 61 62 59 52 49 32 4 351 349 348 346 339 330 325 318 317 309 298 297 295 293 291
333 340 351 354 2 7 13 17 20 20 20 26 36 45 48 51 56 59 55 48 45 46 41 36 26 17 3 345 339 342 336 335 335 333 324 318 315 315 306 303 302 298 294
303 316 320 324 333 343 353 2 11 13 14 20 25 33 40 47 49 50 45 42 37 32 22 14 9 3 350 336 324 324 323 321 322 322 320 320 316 309 306 304 303 302 297
283 295 300 305 309 319 329 341 352 6 10 5 10 23 31 39 38 26 15 12 11 9 5 3 3 359 350 334 325 322 319 317 317 316 313 314 313 310 306 301 299 297 295
276 285 293 295 298 301 305 315 332 346 353 351 1 10 14 5 357 349 348 343 343 346 350 351 351 351 348 343 337 325 316 315 318 316 313 309 308 307 306 304 301 299 297
275 279 285 287 287 290 294 295 303 319 327 325 334 344 346 338 329 328 331 331 329 327 329 331 330 333 337 334 334 335 326 323 322 320 316 311 307 307 307 305 303 301 299
271 276 280 282 283 286 284 281 283 288 297 303 310 319 320 317 316 314 314 318 318 315 316 321 317 320 326 323 324 327 327 323 320 319 319 315 310 307 307 305 304 303 300
265 269 274 280 279 279 282 279 274 277 283 292 299 304 307 305 305 307 308 310 313 311 310 313 313 314 317 318 319 320 320 316 316 314 314 314 310 309 309 308 307 306 303
262 264 270 274 275 275 280 275 274 275 279 284 292 297 300 301 301 302 304 306 307 306 306 306 309 309 311 312 313 314 314 315 314 313 312 311 311 309 308 307 307 307 303
261 263 264 268 269 271 273 272 271 272 277 280 289 294 297 299 299 299 299 300 300 304 305 303 303 304 307 308 310 313 312 311 309 309 309 310 309 308 306 306 307 305 303
260 261 260 263 265 264 267 270 268 266 274 278 284 289 292 295 297 296 295 295 299 302 303 304 303 304 306 307 306 307 309 309 308 308 307 307 306 305 305 305 304 303 303
257 258 259 261 263 263 263 264 265 264 268 273 279 284 288 289 295 296 297 295 296 299 300 302 303 304 304 304 304 304 304 305 306 307 307 306 303 302 302 301 301 301 301
254 256 257 260 260 260 261 262 263 264 269 271 276 281 283 285 288 292 294 296 297 297 299 301 302 302 302 302 300 300 301 302 304 304 303 303 301 300 299 300 299 298 299
254 252 253 256 256 256 257 259 261 264 268 270 276 279 279 282 284 287 291 292 294 296 298 300 300 299 299 299 299 299 300 301 302 302 303 302 299 298 297 298 297 297 297
249 250 252 254 254 253 255 258 261 264 268 272 276 278 277 277 281 285 288 289 289 292 295 296 297 298 297 297 298 298 299 300 301 301 303 302 299 297 296 297 295 296 296
247 249 252 255 255 254 256 258 260 263 267 270 274 275 274 274 277 280 284 286 288 289 291 293 295 296 298 298 298 297 299 299 299 300 300 300 298 297 296 297 296 295 295
245 247 249 251 252 255 258 259 260 263 267 268 272 273 273 274 277 278 280 283 285 287 287 288 291 294 296 298 297 297 298 299 299 300 300 299 297 296 296 296 297 296 294
245 247 247 248 250 254 257 258 261 264 266 269 271 272 274 275 276 279 280 281 282 284 287 289 291 293 294 297 298 297 297 298 299 300 300 299 296 295 294 294 294 294 294
246 246 247 247 249 252 254 255 259 261 263 266 268 271 273 275 276 278 281 281 282 285 287 290 291 293 294 295 295 295 297 298 298 299 299 300 299 294 292 292 291 292 293
246 247 247 247 248 250 251 253 255 259 264 266 265 269 271 274 275 277 280 281 284 286 288 290 291 293 293 294 295 295 296 296 297 298 299 301 302 296 292 291 290 289 291
246 248 248 246 247 248 250 253 255 259 264 265 265 267 269 272 275 275 277 278 281 284 287 290 291 291 292 292 293 293 294 296 296 297 298 300 301 300 298 296 292 290 291
246 247 247 246 246 248 250 252 254 258 261 262 264 267 270 273 275 276 278 280 281 282 285 288 288 289 290 291 291 291 292 294 295 296 296 297 299 299 299 297 294 292 292
245 246 247 247 248 249 250 252 255 258 259 261 264 267 270 273 275 277 279 279 279 280 283 285 287 288 288 289 289 289 290 292 293 294 294 295 296 296 296 296 295 294 293
245 244 244 246 247 249 251 254 257 258 259 262 264 267 269 271 274 274 276 278 278 280 281 282 284 286 286 287 288 288 289 290 291 292 292 293 294 294 294 294 294 294 294
Height
5906 5904 5903 5901 5900 5899 5897 5896 5895 5893 5892 5891 5890 5889 5888 5887 5887 5886 5886 5885 5885 5885 5885 5884 5884 5884 5884 5883 5883 5883 5882 5881 5881 5880 5879 5878 5878 5878 5877 5877 5877 5876 5876
5906 5905 5904 5902 5901 5900 5899 5897 5896 5895 5893 5892 5891 5890 5889 5889 5888 5887 5886 5886 5886 5885 5885 5885 5884 5884 5884 5883 5883 5883 5882 5881 5880 5880 5879 5878 5878 5877 5876 5876 5875 5875 5874
5906 5905 5904 5903 5902 5901 5899 5898 5897 5896 5895 5893 5892 5891 5890 5890 5889 5888 5887 5887 5886 5886 5886 5885 5885 5884 5884 5883 5883 5882 5882 5881 5880 5879 5879 5878 5877 5876 5875 5875 5874 5874 5873
5906 5905 5904 5904 5902 5901 5900 5899 5898 5896 5895 5894 5893 5892 5891 5891 5890 5889 5888 5887 5887 5886 5886 5885 5885 5884 5884 5883 5883 5882 5881 5880 5880 5879 5878 5877 5876 5875 5874 5874 5873 5872 5871
5906 5905 5904 5904 5903 5901 5900 5899 5898 5897 5895 5894 5893 5893 5892 5891 5891 5890 5889 5888 5887 5886 5886 5885 5884 5884 5883 5883 5882 5881 5881 5880 5879 5878 5877 5876 5875 5874 5873 5873 5872 5870 5869
5904 5904 5904 5903 5902 5901 5900 5899 5898 5897 5896 5895 5894 5893 5892 5892 5891 5890 5889 5888 5887 5886 5886 5885 5884 5884 5883 5882 5881 5881 5880 5879 5878 5877 5876 5875 5874 5873 5872 5871 5869 5868 5866
5903 5903 5903 5902 5902 5901 5900 5899 5898 5897 5896 5895 5894 5893 5892 5891 5891 5890 5889 5888 5887 5886 5885 5884 5884 5883 5883 5882 5881 5880 5879 5878 5877 5876 5874 5873 5872 5871 5870 5868 5867 5865 5864
5902 5902 5901 5901 5900 5900 5899 5898 5898 5897 5896 5895 5894 5893 5892 5891 5890 5890 5889 5888 5887 5886 5885 5884 5883 5882 5881 5881 5880 5879 5877 5876 5875 5874 5873 5872 5870 5869 5868 5866 5864 5863 5861
5900 5899 5899 5899 5898 5898 5898 5897 5897 5896 5895 5895 5894 5893 5892 5891 5890 5889 5888 5887 5886 5885 5884 5883 5882 5881 5880 5879 5879 5878 5876 5875 5874 5872 5871 5869 5868 5866 5865 5863 5861 5859 5857
5897 5897 5897 5897 5896 5896 5896 5895 5895 5895 5894 5893 5893 5892 5891 5890 5889 5888 5887 5886 5885 5884 5883 5882 5881 5880 5879 5878 5877 5876 5875 5873 5872 5871 5869 5867 5865 5864 5862 5860 5857 5855 5853
5894 5894 5894 5894 5894 5894 5894 5893 5893 5893 5892 5892 5891 5890 5889 5888 5887 5887 5886 5885 5884 5883 5881 5880 5879 5878 5877 5876 5875 5874 5872 5871 5870 5868 5866 5864 5862 5860 5858 5856 5853 5851 5849
5890 5890 5891 5891 5891 5891 5891 5891 5890 5890 5890 5890 5889 5889 5888 5887 5886 5885 5884 5883 5882 5881 5880 5879 5877 5877 5875 5874 5873 5871 5870 5868 5867 5865 5863 5861 5859 5857 5854 5852 5850 5847 5845
5886 5886 5887 5887 5887 5888 5888 5888 5888 5888 5888 5887 5887 5886 5886 5885 5884 5883 5882 5881 5880 5879 5877 5876 5875 5874 5873 5872 5871 5869 5867 5866 5864 5862 5860 5858 5855 5853 5850 5848 5846 5843 5841
5881 5882 5883 5883 5883 5884 5884 5884 5884 5885 5885 5885 5884 5884 5883 5882 5882 5881 5879 5878 5877 5876 5875 5874 5873 5872 5870 5869 5868 5866 5864 5862 5860 5858 5856 5853 5851 5848 5846 5844 5841 5839 5837
5876 5877 5878 5879 5879 5880 5880 5881 5881 5881 5881 5881 5881 5881 5880 5879 5879 5878 5877 5876 5875 5873 5872 5871 5870 5868 5867 5866 5864 5862 5860 5858 5856 5854 5851 5849 5846 5844 5841 5839 5836 5834 5832
5871 5872 5873 5874 5875 5875 5876 5877 5877 5877 5877 5878 5877 5877 5876 5876 5876 5875 5874 5873 5872 5870 5869 5867 5866 5865 5863 5861 5860 5858 5856 5854 5851 5849 5846 5844 5841 5839 5836 5834 5831 5829 5827
5865 5867 5868 5869 5870 5870 5871 5872 5873 5873 5873 5873 5873 5873 5872 5872 5871 5871 5870 5869 5868 5866 5865 5863 5862 5861 5859 5857 5855 5853 5851 5849 5846 5844 5841 5838 5836 5833 5831 5829 5826 5824 5821
5859 5861 5862 5863 5865 5865 5866 5867 5868 5869 5869 5869 5869 5868 5868 5867 5867 5866 5865 5864 5863 5862 5861 5860 5858 5856 5855 5853 5850 5848 5846 5843 5841 5838 5835 5833 5830 5827 5825 5823 5821 5818 5815
5853 5854 5856 5857 5859 5860 5861 5862 5862 5863 5863 5864 5864 5863 5863 5863 5862 5861 5861 5860 5859 5857 5856 5854 5853 5851 5849 5847 5845 5843 5840 5838 5835 5833 5830 5827 5824 5822 5819 5817 5815 5812 5810
5846 5848 5849 5851 5852 5854 5855 5855 5856 5857 5858 5858 5858 5858 5858 5858 5857 5856 5855 5854 5853 5852 5850 5849 5847 5845 5844 5841 5839 5837 5835 5832 5830 5827 5824 5821 5818 5815 5813 5811 5808 5806 5804
5838 5840 5842 5844 5845 5847 5848 5849 5850 5851 5851 5852 5852 5852 5852 5852 5851 5850 5850 5848 5847 5846 5844 5843 5841 5839 5837 5835 5833 5830 5828 5826 5824 5821 5818 5815 5811 5808 5806 5804 5802 5800 5798
5830 5832 5834 5836 5838 5839 5840 5842 5843 5844 5844 5845 5845 5846 5845 5845 5845 5844 5843 5842 5841 5840 5838 5837 5835 5833 5831 5829 5826 5824 5822 5820 5817 5815 5812 5808 5804 5801 5800 5798 5796 5794 5792
5822 5824 5826 5828 5829 5831 5833 5834 5836 5837 5837 5838 5838 5839 5838 5838 5838 5837 5836 5835 5834 5833 5832 5830 5828 5826 5824 5822 5820 5818 5816 5813 5811 5808 5805 5803 5799 5796 5794 5792 5790 5788 5785
5813 5815 5817 5819 5821 5823 5825 5826 5828 5829 5830 5831 5831 5831 5831 5831 5830 5830 5829 5828 5827 5826 5824 5822 5821 5819 5817 5816 5814 5811 5809 5806 5804 5801 5799 5796 5793 5791 5788 5785 5783 5781 5778
5803 5805 5808 5810 5812 5814 5816 5818 5819 5821 5821 5822 5823 5823 5823 5823 5823 5822 5821 5820 5819 5818 5817 5815 5813 5812 5810 5808 5806 5804 5802 5799 5797 5794 5792 5789 5787 5784 5781 5779 5776 5774 5771
5793 5796 5799 5801 5803 5805 5807 5809 5810 5812 5813 5814 5814 5815 5815 5815 5814 5814 5813 5812 5811 5810 5808 5807 5805 5804 5802 5800 5798 5796 5794 5792 5789 5787 5784 5782 5779 5777 5774 5772 5769 5767 5764